Regional Weather Roundup
Issued by NWS

Home | Current Version | Previous Version | Text Only | Print | Product List | Glossary Off
Versions: 1 2 3 4 5 6 7 8 9 10 11 12 13 14 15 16 17 18 19 20 21 22 23 24 25 26 27 28 29 30 31 32 33 34 35 36 37 38 39 40 41 42 43 44 45 46 47 48 49 50

000
ASUS43 KLSX 211607
RWRMO

WEATHER SUMMARY FOR MISSOURI
NATIONAL WEATHER SERVICE SPRINGFIELD MO
1000 AM CST SUN JAN 21 2018

NOTE: "FAIR" INDICATES FEW OR NO CLOUDS BELOW 12,000 FEET WITH NO
       SIGNIFICANT WEATHER AND/OR OBSTRUCTIONS TO VISIBILITY.
       CURRENT SKY AND/OR WEATHER CONDITIONS ARE NOT AVAILABLE FOR
       CHILLICOTHE AND FARMINGTON.

MOZ001>031-035>038-043-044-053-054-211700-
...NORTHERN AND WESTERN MISSOURI...

CITY           SKY/WX    TMP DP  RH WIND       PRES   REMARKS
KANSAS CTY INT CLOUDY    54  50  86 S10       29.78S
KANSAS C DTWN  CLOUDY    54  48  80 SE6       29.78S
LEE`S SUMMIT   CLOUDY    53  52  96 S10       29.79S
ST JOSEPH      CLOUDY    52  50  93 S8        29.78S
CHILLICOTHE      N/A     52  48  86 SE9       29.83S
KIRKSVILLE     CLOUDY    49  49 100 SE8       29.85F

$$
MOZ066>068-077>081-088>096-101>105-211700-
...SOUTHWEST MISSOURI...

CITY           SKY/WX    TMP DP  RH WIND       PRES   REMARKS
SPRINGFIELD    SUNNY     59  55  87 S15       29.88R
JOPLIN         MOSUNNY   64  56  75 S28G39    29.83S
BRANSON        PTSUNNY   64  54  68 S14G22    29.93S

$$
MOZ032>034-039>042-045>050-055>058-069>072-211700-
...CENTRAL MISSOURI...

CITY           SKY/WX    TMP DP  RH WIND       PRES   REMARKS
COLUMBIA       MOSUNNY   56  52  86 SE14      29.87F
JEFFERSON CITY SUNNY     53  50  89 SE12      29.88F
ROLLA          SUNNY     60  54  80 S17G26    29.91S
SEDALIA        MOSUNNY   58  53  84 S12       29.84F
WHITEMAN AFB   PTSUNNY   56  50  81 S12       29.78S
WARRENSBURG    CLOUDY    54  48  82 S5        29.81F
OSAGE BEACH    SUNNY     59  54  83 S10G18    29.89R

$$
MOZ051-052-059>065-211700-
...EAST CENTRAL MISSOURI...

CITY           SKY/WX    TMP DP  RH WIND       PRES   REMARKS
ST LOUIS INTL  PTSUNNY   55  52  89 SE13      29.96S
SPIRIT OF STL  SUNNY     56  52  86 VRB5      29.93F
ST CHARLES     MOSUNNY   57  52  83 SE9       29.95S

$$
MOZ072>076-082>087-097>100-106>115-211700-
...SOUTH CENTRAL AND SOUTHEAST MISSOURI...

CITY           SKY/WX    TMP DP  RH WIND       PRES   REMARKS
CAPE GIRARDEAU CLOUDY    53  50  89 S22G33    30.05S
FARMINGTON     CLOUDY    54  53  97 S13       30.00R FOG
POPLAR BLUFF   CLOUDY    54  52  93 S8        30.04S
WEST PLAINS    CLOUDY    58  55  90 S14G21    29.98S

$$



USA.gov is the U.S. government's official web portal to all federal, state and local government web resources and services.